Location: Chavannes
(47.1090°N, 0.2226°W)
Time: 14:12:31
(UTC+00:00)

USA 215 - Pass Details

Date: 16 October 2021
Orbit: 1099 x 1109 km, 123.0° (Epoch: 20 November)

Event Time Altitude Azimuth Distance (km) Brightness Sun altitude
Exits shadow 17:54:55 - 56° (NE) 3,426 5.3 -8.1°
Reaches altitude 10° 17:56:10 10° 53° (NE) 2,964 5.0 -8.4°
Maximum altitude 18:02:19 45° 343° (NNW) 1,459 4.1 -9.4°
Drops below altitude 10° 18:08:28 10° 274° (W) 2,966 7.1 -10.5°
Sets 18:11:03 0° 268° (W) 3,924 8.5 -10.9°
